FW5810 Weather Reports


Display with metric or nautical units.
time (UTC)temp
F
wind
direction
speed
MPH
gust
MPH
rain 1hr
in
rain 24hr
in
rain mn
in
humidity
%
barometer
mb
20260903145818 79 177 3.0 11.0 0.00 0.29 0.29 81 1016.3
20260903145314 78 217 5.0 7.0 0.00 0.29 0.29 81 1016.4
20260903144813 78 148 2.0 4.0 0.00 0.29 0.29 83 1016.6
20260903144308 78 129 4.0 8.0 0.00 0.29 0.29 81 1016.6
20260903143804 77 198 3.0 5.0 0.00 0.29 0.29 83 1016.6
20260903143300 76 134 1.0 1.0 0.00 0.29 0.29 85 1016.6
20260903142756 76 129 3.0 4.0 0.00 0.29 0.29 85 1016.4
20260903142251 76 130 2.0 7.0 0.00 0.29 0.29 85 1016.3
20260903141747 76 102 2.0 4.0 0.00 0.29 0.29 87 1016.4
20260903141242 75 160 4.0 7.0 0.00 0.29 0.29 87 1016.4
20260903140737 74 141 5.0 5.0 0.00 0.29 0.29 87 1016.3
20260903140232 73 130 1.0 4.0 0.00 0.29 0.29 90 1016.5
20260903135728 73 175 5.0 7.0 0.00 0.29 0.29 90 1016.5
20260903135223 73 142 2.0 3.0 0.00 0.29 0.29 92 1016.4
20260903134721 73 130 3.0 4.0 0.00 0.29 0.29 92 1016.6
20260903134218 72 144 1.0 4.0 0.00 0.29 0.29 91 1016.4
20260903133715 72 136 4.0 5.0 0.00 0.29 0.29 91 1016.4
20260903133212 72 205 2.0 3.0 0.00 0.29 0.29 93 1016.4
20260903132711 72 138 3.0 4.0 0.00 0.29 0.29 93 1016.6
20260903132206 72 67 1.0 1.0 0.00 0.29 0.29 93 1016.5
20260903131701 72 135 4.0 4.0 0.00 0.29 0.29 93 1016.5
20260903131200 71 96 1.0 1.0 0.00 0.29 0.29 93 1016.5
20260903130655 71 120 1.0 3.0 0.00 0.29 0.29 94 1016.4
20260903130150 70 219 1.0 1.0 0.00 0.29 0.29 96 1016.5
20260903125649 70 132 2.0 4.0 0.00 0.29 0.29 96 1016.5
20260903125144 70 181 1.0 3.0 0.00 0.29 0.29 96 1016.5
20260903124643 70 233 0.0 1.0 0.00 0.29 0.29 97 1016.4
20260903124138 69 216 1.0 3.0 0.00 0.29 0.29 97 1016.5
20260903123637 69 178 0.0 0.0 0.00 0.29 0.29 97 1016.5
20260903123136 69 180 1.0 1.0 0.00 0.29 0.29 96 1016.4
20260903122630 68 123 1.0 1.0 0.00 0.29 0.29 96 1016.5
20260903122125 68 121 0.0 0.0 0.00 0.29 0.29 96 1016.3
20260903121624 68 123 1.0 3.0 0.00 0.29 0.29 96 1016.5
20260903121120 68 123 1.0 3.0 0.00 0.29 0.29 96 1016.6
20260903120619 68 92 0.0 1.0 0.19 0.29 0.29 95 1016.4
20260903120113 68 253 2.0 1.0 1.09 0.29 0.29 95 1017.2
20260903115611 69 74 1.0 1.0 1.37 0.24 0.24 93 1017.2
20260903115107 69 351 5.0 5.0 0.42 0.07 0.07 92 1018.0
20260903114602 69 7 2.0 1.0 0.07 0.01 0.01 91 1017.0
20260903114058 69 258 2.0 3.0 0.00 0.00 0.00 89 1016.6
20260903113553 69 144 5.0 5.0 0.00 0.00 0.00 89 1016.4
20260903113049 70 138 2.0 4.0 0.00 0.00 0.00 88 1016.9
20260903112544 69 20 0.0 5.0 0.00 0.00 0.00 87 1017.4
20260903112039 70 347 3.0 4.0 0.00 0.00 0.00 88 1017.3
20260903111537 70 227 2.0 3.0 0.00 0.00 0.00 86 1017.1
20260903111034 71 4 0.0 0.0 0.00 0.00 0.00 83 1017.1
20260903110530 71 16 4.0 4.0 0.00 0.00 0.00 82 1017.0
20260903110030 71 29 3.0 7.0 0.00 0.00 0.00 81 1017.1
20260903105525 72 29 5.0 7.0 0.00 0.00 0.00 80 1016.9
20260903105019 72 65 5.0 10.0 0.00 0.00 0.00 79 1016.9
20260903104514 72 37 6.0 8.0 0.00 0.00 0.00 78 1017.0
20260903104010 72 355 7.0 11.0 0.00 0.00 0.00 77 1016.6
20260903103506 72 9 7.0 12.0 0.00 0.00 0.00 78 1016.6
20260903103002 73 57 7.0 11.0 0.00 0.00 0.00 78 1017.1
20260903102457 73 69 11.0 15.0 0.00 0.00 0.00 77 1017.1
20260903101955 74 8 11.0 22.0 0.00 0.00 0.00 77 1016.7
20260903101450 74 352 16.0 18.0 0.00 0.00 0.00 77 1017.3
20260903100946 74 355 13.0 15.0 0.00 0.00 0.00 82 1017.0
20260903100441 74 14 11.0 14.0 0.00 0.00 0.00 89 1016.3
20260903095938 74 232 0.0 1.0 0.00 0.00 0.00 89 1015.9
20260903095432 74 232 0.0 1.0 0.00 0.00 0.00 89 1015.8
20260903094928 74 232 1.0 1.0 0.00 0.00 0.00 89 1015.7
20260903094427 74 231 0.0 1.0 0.00 0.00 0.00 89 1015.6
20260903093923 74 246 2.0 3.0 0.00 0.00 0.00 89 1015.3
20260903093418 74 283 1.0 1.0 0.00 0.00 0.00 89 1015.1
20260903092914 74 283 0.0 1.0 0.00 0.00 0.00 89 1014.9
20260903092408 74 283 0.0 0.0 0.00 0.00 0.00 88 1015.2
20260903091906 74 282 1.0 1.0 0.00 0.00 0.00 87 1015.3
20260903091405 74 284 0.0 0.0 0.00 0.00 0.00 86 1015.3
20260903090901 74 284 1.0 1.0 0.00 0.00 0.00 86 1015.4
20260903090356 75 284 0.0 1.0 0.00 0.00 0.00 85 1015.2
20260903085853 75 284 1.0 1.0 0.00 0.00 0.00 84 1015.3
20260903085348 75 230 1.0 1.0 0.00 0.00 0.00 84 1015.2
20260903084847 74 273 1.0 1.0 0.00 0.00 0.00 84 1015.2
20260903084346 74 278 0.0 0.0 0.00 0.00 0.00 86 1015.1
20260903083841 74 284 2.0 3.0 0.00 0.00 0.00 86 1015.0
20260903083337 74 292 1.0 1.0 0.00 0.00 0.00 86 1015.1
20260903082835 74 292 0.0 0.0 0.00 0.00 0.00 85 1015.2
20260903082331 74 292 1.0 1.0 0.00 0.00 0.00 87 1015.0
20260903081826 74 292 0.0 1.0 0.00 0.00 0.00 87 1015.1
20260903081322 74 292 0.0 1.0 0.00 0.00 0.00 88 1015.4
20260903080818 74 308 1.0 3.0 0.00 0.00 0.00 86 1015.3
20260903080315 74 352 0.0 1.0 0.00 0.00 0.00 87 1015.4
20260903075814 74 352 1.0 1.0 0.00 0.00 0.00 88 1015.3
20260903075310 75 352 0.0 0.0 0.00 0.00 0.00 87 1015.5
20260903074809 75 352 0.0 0.0 0.00 0.00 0.00 86 1015.5
20260903074304 75 352 0.0 1.0 0.00 0.00 0.00 85 1015.4
20260903073800 76 352 0.0 1.0 0.00 0.00 0.00 84 1015.5
20260903073255 77 352 1.0 1.0 0.00 0.00 0.00 81 1015.4
20260903072751 77 352 0.0 0.0 0.00 0.00 0.00 79 1015.5
20260903072247 78 352 0.0 0.0 0.00 0.00 0.00 77 1015.5
20260903071743 78 352 0.0 0.0 0.00 0.00 0.00 74 1015.4
20260903071238 79 351 0.0 1.0 0.00 0.00 0.00 74 1015.4
20260903070738 79 12 0.0 1.0 0.00 0.00 0.00 73 1015.6
20260903070234 79 334 2.0 5.0 0.00 0.00 0.00 73 1015.5
20260903065729 80 298 3.0 4.0 0.00 0.00 0.00 76 1015.6
20260903065228 80 328 3.0 5.0 0.00 0.00 0.00 76 1015.8
20260903064727 80 335 4.0 8.0 0.00 0.00 0.00 78 1015.7
20260903064223 79 344 2.0 5.0 0.00 0.00 0.00 79 1015.9
20260903063719 79 261 5.0 7.0 0.00 0.00 0.00 79 1015.8
20260903063213 78 358 3.0 4.0 0.00 0.00 0.00 80 1016.0
20260903062709 78 359 4.0 7.0 0.00 0.00 0.00 83 1016.0
20260903062204 78 32 1.0 1.0 0.00 0.00 0.00 82 1015.6
20260903061700 78 33 2.0 1.0 0.00 0.00 0.00 81 1015.3
20260903061158 78 193 1.0 1.0 0.00 0.00 0.00 80 1015.2
20260903060654 78 71 1.0 1.0 0.00 0.00 0.00 81 1015.1
20260903060143 78 331 0.0 0.0 0.00 0.00 0.00 80 1015.2
20260903055641 78 281 0.0 1.0 0.00 0.00 0.00 81 1015.2
20260903055139 78 295 3.0 4.0 0.00 0.00 0.00 81 1015.3
20260903054634 78 272 3.0 3.0 0.00 0.00 0.00 81 1015.2
20260903054130 78 239 2.0 4.0 0.00 0.00 0.00 81 1015.3
20260903053626 78 295 2.0 3.0 0.00 0.00 0.00 81 1015.4
20260903053121 78 212 2.0 3.0 0.00 0.00 0.00 81 1015.3
20260903052617 78 134 1.0 3.0 0.00 0.00 0.00 80 1015.2
20260903052112 79 214 0.0 1.0 0.00 0.00 0.00 80 1015.1
20260903051612 79 222 0.0 3.0 0.00 0.00 0.00 80 1015.0
20260903051108 78 264 2.0 1.0 0.00 0.00 0.00 81 1015.0
20260903050602 78 104 1.0 1.0 0.00 0.00 0.00 81 1014.9
20260903050057 78 203 1.0 1.0 0.00 0.00 0.00 81 1014.8
20260903045556 79 232 1.0 4.0 0.00 0.00 0.00 81 1015.0
20260903045053 79 226 0.0 1.0 0.00 0.00 0.00 80 1014.8
20260903044549 79 268 1.0 3.0 0.00 0.00 0.00 80 1015.0
20260903044044 79 191 1.0 3.0 0.00 0.00 0.00 80 1015.0
20260903043540 79 267 1.0 1.0 0.00 0.00 0.00 80 1014.6
20260903043039 79 100 0.0 1.0 0.00 0.00 0.00 80 1014.6
20260903042534 79 219 3.0 4.0 0.00 0.00 0.00 80 1014.5
20260903042029 79 207 0.0 1.0 0.00 0.00 0.00 80 1014.4
20260903041526 79 224 1.0 1.0 0.00 0.00 0.00 80 1014.5
20260903041021 79 249 3.0 3.0 0.00 0.00 0.00 81 1014.4
20260903040519 79 230 0.0 1.0 0.00 0.00 0.00 81 1014.6
20260903040017 79 248 2.0 4.0 0.00 0.00 0.00 81 1014.1
20260903035512 79 206 2.0 4.0 0.00 0.00 0.00 81 1014.2
20260903035007 78 295 2.0 4.0 0.00 0.00 0.00 83 1014.0
20260903034501 78 223 0.0 3.0 0.00 0.00 0.00 83 1013.9
20260903033956 78 231 0.0 3.0 0.00 0.00 0.00 83 1014.1
20260903033452 78 237 2.0 3.0 0.00 0.00 0.00 85 1014.1
20260903032946 78 220 3.0 3.0 0.00 0.00 0.00 85 1014.2
20260903032442 78 235 1.0 1.0 0.00 0.00 0.00 84 1014.2
20260903031937 78 218 2.0 1.0 0.00 0.00 0.00 84 1014.4
20260903031437 78 218 1.0 1.0 0.00 0.00 0.00 84 1014.3
20260903030932 78 278 0.0 1.0 0.00 0.00 0.00 84 1014.6
20260903030428 78 211 0.0 1.0 0.00 0.00 0.00 85 1014.7
20260903025924 78 213 1.0 1.0 0.00 0.00 0.00 86 1014.7
20260903025419 77 226 0.0 0.0 0.00 0.00 0.00 87 1015.2
20260903024914 77 226 0.0 0.0 0.00 0.00 0.00 87 1015.1
20260903024408 77 226 0.0 0.0 0.00 0.00 0.00 87 1015.2
20260903023903 78 226 0.0 0.0 0.00 0.00 0.00 86 1015.2
20260903023359 78 226 0.0 0.0 0.00 0.00 0.00 86 1015.2
20260903022854 78 226 1.0 1.0 0.00 0.00 0.00 86 1015.1
20260903022353 78 227 0.0 0.0 0.00 0.00 0.00 86 1015.2
20260903021851 78 227 0.0 0.0 0.00 0.00 0.00 85 1015.1
20260903021348 78 227 0.0 0.0 0.00 0.00 0.00 86 1015.1
20260903020847 78 227 0.0 1.0 0.00 0.00 0.00 86 1015.2
20260903020343 78 227 0.0 0.0 0.00 0.00 0.00 86 1015.0
20260903015837 78 227 0.0 1.0 0.00 0.00 0.00 86 1015.1
20260903015333 77 210 0.0 5.0 0.00 0.00 0.00 88 1015.1
20260903014828 77 269 1.0 1.0 0.00 0.00 0.00 88 1015.2
20260903014328 78 270 1.0 1.0 0.00 0.00 0.00 88 1015.2
20260903013823 78 270 0.0 0.0 0.00 0.00 0.00 87 1015.2
20260903013322 78 270 0.0 0.0 0.00 0.00 0.00 86 1015.3
20260903012821 79 270 0.0 0.0 0.00 0.00 0.00 85 1015.3
20260903012316 79 270 0.0 0.0 0.00 0.00 0.00 85 1015.1
20260903011815 80 270 0.0 0.0 0.00 0.00 0.00 82 1015.2
20260903011314 80 270 0.0 0.0 0.00 0.00 0.00 81 1015.4
20260903010804 80 270 0.0 0.0 0.00 0.00 0.00 80 1015.1
20260903010300 81 269 0.0 1.0 0.00 0.00 0.00 79 1015.3
20260903005758 81 269 1.0 1.0 0.00 0.00 0.00 78 1015.1
20260903005253 81 267 1.0 1.0 0.00 0.00 0.00 78 1015.2
20260903004749 81 298 0.0 0.0 0.00 0.00 0.00 77 1015.3
20260903004244 81 298 0.0 0.0 0.00 0.00 0.00 78 1015.2
20260903003740 82 298 0.0 0.0 0.00 0.00 0.00 77 1015.0
20260903003235 82 40 0.0 1.0 0.00 0.00 0.00 77 1014.9
20260903002729 83 335 0.0 0.0 0.00 0.00 0.00 74 1015.0
20260903002223 83 336 0.0 0.0 0.00 0.00 0.00 72 1014.9
20260903001719 84 336 0.0 0.0 0.00 0.00 0.00 71 1014.8
20260903001213 84 336 0.0 0.0 0.00 0.00 0.00 70 1014.7
20260903000708 84 333 1.0 1.0 0.00 0.00 0.00 69 1014.6
20260903000208 84 241 0.0 4.0 0.00 0.00 0.00 70 1014.4
20260902235706 84 167 1.0 3.0 0.00 0.00 0.00 70 1014.2
20260902235202 85 201 0.0 1.0 0.00 0.00 0.00 68 1014.4
20260902234701 85 191 0.0 1.0 0.00 0.00 0.00 68 1014.6
20260902234200 85 180 1.0 1.0 0.00 0.00 0.00 67 1014.6
20260902233655 85 219 2.0 3.0 0.00 0.00 0.00 66 1014.8
20260902233155 86 164 1.0 3.0 0.00 0.00 0.00 66 1014.8
20260902232654 86 223 2.0 3.0 0.00 0.00 0.00 64 1014.7
20260902232153 86 139 1.0 1.0 0.00 0.00 0.00 63 1014.6
20260902231647 87 189 1.0 1.0 0.00 0.00 0.00 63 1014.8
20260902231142 87 222 1.0 3.0 0.00 0.00 0.00 62 1014.8
20260902230638 87 313 1.0 1.0 0.00 0.00 0.00 61 1014.7
20260902230136 88 150 0.0 3.0 0.00 0.00 0.00 61 1014.8
20260902225632 88 218 4.0 4.0 0.00 0.00 0.00 60 1014.9
20260902225131 88 227 3.0 4.0 0.00 0.00 0.00 61 1014.9
20260902224630 88 269 4.0 5.0 0.00 0.00 0.00 59 1014.7
20260902224126 89 221 2.0 8.0 0.00 0.00 0.00 58 1014.7
20260902223622 90 95 1.0 3.0 0.00 0.00 0.00 59 1014.9
20260902223121 90 270 2.0 3.0 0.00 0.00 0.00 58 1014.9
20260902222622 90 311 1.0 3.0 0.00 0.00 0.00 57 1014.8
20260902222119 91 248 1.0 4.0 0.00 0.00 0.00 56 1014.8
20260902221613 91 195 1.0 4.0 0.00 0.00 0.00 56 1014.7
20260902221108 91 259 1.0 1.0 0.00 0.00 0.00 56 1014.5
20260902220604 91 259 4.0 5.0 0.00 0.00 0.00 55 1014.6
20260902220058 91 227 2.0 5.0 0.00 0.00 0.00 56 1014.6
20260902215554 91 258 3.0 5.0 0.00 0.00 0.00 56 1014.5
20260902215050 91 339 5.0 7.0 0.00 0.00 0.00 56 1014.4
20260902214550 91 188 3.0 7.0 0.00 0.00 0.00 56 1014.5
20260902214049 92 244 2.0 5.0 0.00 0.00 0.00 57 1014.5
20260902213545 92 240 3.0 4.0 0.00 0.00 0.00 54 1014.5
20260902213044 92 324 1.0 3.0 0.00 0.00 0.00 56 1014.6
20260902212539 92 288 2.0 7.0 0.00 0.00 0.00 57 1014.7
20260902212036 92 248 3.0 8.0 0.00 0.00 0.00 55 1014.7
20260902211532 92 212 2.0 7.0 0.00 0.00 0.00 55 1014.7
20260902211027 92 278 2.0 3.0 0.00 0.00 0.00 53 1015.0
20260902210527 93 329 2.0 4.0 0.00 0.00 0.00 54 1015.0
20260902210026 92 280 4.0 10.0 0.00 0.00 0.00 52 1015.0
20260902205520 93 251 9.0 12.0 0.00 0.00 0.00 51 1015.4
20260902205016 93 190 7.0 8.0 0.00 0.00 0.00 51 1015.4
20260902204515 91 207 3.0 10.0 0.00 0.00 0.00 54 1015.3
20260902204011 93 234 4.0 5.0 0.00 0.00 0.00 52 1015.1
20260902203506 93 115 0.0 7.0 0.00 0.00 0.00 52 1015.0
20260902203005 93 309 3.0 4.0 0.00 0.00 0.00 51 1015.4
20260902202501 93 226 3.0 5.0 0.00 0.00 0.00 55 1015.2
20260902201958 93 200 4.0 7.0 0.00 0.00 0.00 53 1015.3
20260902201457 93 246 3.0 10.0 0.00 0.00 0.00 51 1015.4
20260902200952 94 226 4.0 12.0 0.00 0.00 0.00 50 1015.3
20260902200447 94 281 4.0 7.0 0.00 0.00 0.00 51 1015.4
20260902195943 93 171 4.0 7.0 0.00 0.00 0.00 51 1015.5
20260902195438 93 140 2.0 8.0 0.00 0.00 0.00 53 1015.6
20260902194938 94 248 5.0 10.0 0.00 0.00 0.00 50 1015.6
20260902194437 93 191 3.0 4.0 0.00 0.00 0.00 49 1015.4
20260902193932 94 143 5.0 5.0 0.00 0.00 0.00 49 1015.7
20260902193428 95 160 2.0 4.0 0.00 0.00 0.00 48 1015.7
20260902192927 94 213 2.0 4.0 0.00 0.00 0.00 51 1015.7
20260902192426 94 65 2.0 4.0 0.00 0.00 0.00 48 1015.7
20260902191925 93 211 2.0 4.0 0.00 0.00 0.00 48 1015.8
20260902191421 94 276 5.0 8.0 0.00 0.00 0.00 49 1015.9
20260902190916 94 241 1.0 3.0 0.00 0.00 0.00 49 1015.9
20260902190411 94 282 5.0 5.0 0.00 0.00 0.00 49 1016.0
20260902185906 93 312 1.0 1.0 0.00 0.00 0.00 53 1016.1
20260902185402 93 248 4.0 7.0 0.00 0.00 0.00 49 1016.0
20260902184857 93 217 5.0 5.0 0.00 0.00 0.00 51 1016.1
20260902184352 93 246 6.0 7.0 0.00 0.00 0.00 49 1016.2
20260902183848 93 349 1.0 4.0 0.00 0.00 0.00 52 1016.4
20260902183344 92 221 3.0 4.0 0.00 0.00 0.00 53 1016.4
20260902182834 91 257 4.0 7.0 0.00 0.00 0.00 53 1016.1
20260902182330 92 250 6.0 8.0 0.00 0.00 0.00 52 1016.2
20260902181826 91 103 2.0 7.0 0.00 0.00 0.00 55 1016.3
20260902181322 91 259 3.0 5.0 0.00 0.00 0.00 55 1016.5
20260902180816 92 185 5.0 7.0 0.00 0.00 0.00 54 1016.4
20260902180312 93 327 1.0 4.0 0.00 0.00 0.00 54 1016.5
20260902175807 91 211 5.0 5.0 0.00 0.00 0.00 54 1016.9
20260902175307 91 266 7.0 8.0 0.00 0.00 0.00 54 1017.0
20260902174757 91 288 2.0 5.0 0.00 0.00 0.00 59 1017.1
20260902174253 91 178 3.0 8.0 0.00 0.00 0.00 59 1017.1
20260902173749 92 252 4.0 4.0 0.00 0.00 0.00 56 1016.9
20260902173243 90 113 2.0 3.0 0.00 0.00 0.00 62 1017.1
20260902172737 91 154 3.0 4.0 0.00 0.00 0.00 62 1017.2
20260902172232 90 217 1.0 3.0 0.00 0.00 0.00 64 1017.2
20260902171727 89 278 3.0 5.0 0.00 0.00 0.00 62 1017.4
20260902171222 89 269 3.0 5.0 0.00 0.00 0.00 63 1017.4
20260902170718 89 228 3.0 5.0 0.00 0.00 0.00 63 1017.3
20260902170213 88 196 1.0 5.0 0.00 0.00 0.00 64 1017.4
20260902165708 89 268 5.0 7.0 0.00 0.00 0.00 62 1017.2
20260902165203 89 118 3.0 7.0 0.00 0.00 0.00 67 1017.3
20260902164658 89 261 1.0 1.0 0.00 0.00 0.00 64 1017.3
20260902164156 89 173 1.0 7.0 0.00 0.00 0.00 64 1017.2
20260902163652 88 246 4.0 8.0 0.00 0.00 0.00 64 1017.3
20260902163152 88 221 2.0 4.0 0.00 0.00 0.00 66 1017.4
20260902162650 89 244 5.0 7.0 0.00 0.00 0.00 65 1017.5
20260902162145 88 184 3.0 8.0 0.00 0.00 0.00 64 1017.4
20260902161640 88 281 5.0 5.0 0.00 0.00 0.00 64 1017.5
20260902161136 87 309 1.0 3.0 0.00 0.00 0.00 65 1017.6
20260902160632 87 266 3.0 4.0 0.00 0.00 0.00 66 1017.6
20260902160127 88 276 7.0 8.0 0.00 0.00 0.00 65 1017.6
20260902155625 87 256 3.0 4.0 0.00 0.00 0.00 66 1017.8
20260902155124 87 220 2.0 4.0 0.00 0.00 0.00 68 1017.7
20260902154619 88 301 5.0 5.0 0.00 0.00 0.00 65 1017.9
20260902154114 87 237 2.0 5.0 0.00 0.00 0.00 67 1017.9
20260902153613 87 121 1.0 3.0 0.00 0.00 0.00 67 1017.7
20260902153109 86 262 5.0 5.0 0.00 0.00 0.00 68 1017.6
20260902152605 86 267 4.0 4.0 0.00 0.00 0.00 71 1017.9
20260902152100 87 239 5.0 8.0 0.00 0.00 0.00 69 1017.8
20260902151556 86 65 0.0 1.0 0.00 0.00 0.00 70 1017.8
20260902151055 86 208 3.0 5.0 0.00 0.00 0.00 69 1017.8
20260902150550 85 280 2.0 5.0 0.00 0.00 0.00 70 1017.8
20260902150046 85 330 2.0 4.0 0.00 0.00 0.00 71 1017.6